{"data":{"norad_id":56475,"epoch":"2026-09-20T22:00:03.000096Z","epoch_age_seconds":75976,"freshness":"FRESH","line1":"1 56475U 23064AD  26263.91670139 -.00000089  00000+0  78557-6 0  9992","line2":"2 56475  70.0002 352.1146 0004431 295.9895 115.3976 15.06050707  5760","mean_motion":15.06050707,"eccentricity":0.0004431,"inclination_deg":70.0002,"raan_deg":352.1146,"arg_perigee_deg":295.9895,"mean_anomaly_deg":115.3976,"bstar":7.8557e-7,"rev_number":576,"period_min":95.614310547912,"perigee_km":545.21320118383,"apogee_km":551.35139396534,"semimajor_km":6926.4192975746,"source":"CELESTRAK","updated_at":"2026-09-21T09:00:33.446326Z"}}